Location: Cronhütte
(48.9135°N, 9.6869°E)
Time: 23:17:19
(UTC+00:00)

Cosmos 2151 Rocket - Pass Details

Date: 23 May 2024
Orbit: 614 x 639 km, 82.5° (Epoch: 14 June)

Event Time Altitude Azimuth Distance (km) Brightness Sun altitude
Rises 02:34:10 0° 346° (NNW) 2,944 7.5 -7.9°
Reaches altitude 10° 02:36:27 10° 343° (NNW) 2,027 6.6 -7.6°
Maximum altitude 02:40:51 56° 266° (W) 750 3.7 -7.1°
Drops below altitude 10° 02:45:11 10° 188° (S) 1,995 5.7 -6.6°
Sets 02:47:25 0° 184° (S) 2,892 6.6 -6.3°
